Regional Weather Roundup
Issued by NWS State College, PA

Home | Current Version | Previous Version | Graphics & Text | Print | Product List | Glossary Off
Versions: 1 2 3 4 5 6 7 8 9 10 11 12 13 14 15 16 17 18 19 20 21 22 23 24 25 26 27 28 29 30 31 32 33 34 35 36 37 38 39 40 41 42 43 44 45 46 47 48 49 50

000
ASUS41 KCTP 232210
RWRCTP

REGIONAL WEATHER ROUNDUP
NATIONAL WEATHER SERVICE STATE COLLEGE PA
500 PM EST FRI FEB 23 2018

Note: "fair" indicates few or no clouds below 12,000 feet with no
significant weather and/or obstructions to visibility.

* = STATION THAT DOES NOT REPORT PRECIPITATION /E.G. RAIN...SNOW...ETC/
    THUNDER OR FOG.

PAZ002>004-007>009-013>016-020>023-029>032-232300-
WESTERN PENNSYLVANIA

CITY           SKY/WX    TMP DP  RH WIND       PRES   REMARKS
ERIE           CLOUDY    50  47  89 W15G29    30.11R
MEADVILLE      CLOUDY    56  56 100 SW13G18   30.12S
FRANKLIN*      LGT RAIN  55  55 100 SW7       30.14S FOG
NEW CASTLE     CLOUDY    61  59  93 SW8       30.15S
BEAVER COUNTY  CLOUDY    61  55  82 SW7       30.15S
BUTLER*        CLOUDY    61  57  87 SW10      30.16S
PITTSBURGH INT CLOUDY    63  57  81 SW9G18    30.16S
PITTSBURGH     PTSUNNY   63  54  72 W12G24    30.17S
INDIANA*       NOT AVBL
LATROBE        CLOUDY    64  57  77 W16       30.19S
WASHINGTON CO* PTSUNNY   63  57  82 SW8       30.21R
$$

PAZ004>006-010>012-017>019-024>028-033>037-041-042-045-046-049>053-232300-
CENTRAL PENNSYLVANIA

CITY           SKY/WX    TMP DP  RH WIND       PRES   REMARKS
BRADFORD       CLOUDY    43  43 100 S7        30.13S FOG
DUBOIS         LGT RAIN  45  44  97 SE3       30.16S VSB 1/2
CLEARFIELD     LGT RAIN  40  39  97 N5        30.20F VSB 1/2
JOHNSTOWN      FAIR      49  47  93 SE3       30.19F
ALTOONA        CLOUDY    41  40  96 S7        30.26F
STATE COLLEGE  CLOUDY    39  39 100 SW5       30.24F
WILLIAMSPORT   LGT RAIN  40  37  89 E12       30.27F FOG
SELINSGROVE    CLOUDY    40  37  89 S8        30.31F
FT INDIANTOWN  CLOUDY    40  40 100 SE3       30.34F FOG
CAPITAL CITY   CLOUDY    43  42  97 E5        30.34F FOG
HARRISBURG     CLOUDY    42  40  92 SE6       30.33F FOG
YORK           CLOUDY    42  42 100 S3        30.33F FOG
$$

PAZ038>040-043-044-047-048-054-055-060>062-067>071-232300-
EASTERN PENNSYLVANIA

CITY           SKY/WX    TMP DP  RH WIND       PRES   REMARKS
SCRANTON       CLOUDY    38  36  92 SW6       30.29F
MOUNT POCONO   CLOUDY    32  32 100 SE7       30.27F
ALLENTOWN      LGT RAIN  40  36  86 CALM      30.37R FOG
QUAKERTOWN*    CLOUDY    39  39 100 CALM      30.37R FOG
READING        CLOUDY    40  40 100 E3        30.34F FOG
LANCASTER      CLOUDY    42  41  96 SE7       30.34F FOG
COATESVILLE    FOG       41  41 100 CALM      30.37R VSB 3/4
POTTSTOWN      CLOUDY    40  40 100 CALM      30.39S FOG
BLUE BELL      CLOUDY    41  41 100 CALM      30.38F
DOYLESTOWN     CLOUDY    39  39 100 CALM      30.35F FOG
WILLOW GROVE   NOT AVBL
NORTH PHILA    FOG       44  42  93 E6        30.38F VSB 1
PHILADELPHIA   DRIZZLE   43  42  97 E5        30.37F FOG
$$



USA.gov is the U.S. government's official web portal to all federal, state and local government web resources and services.